1998-067JJ

Last updated on May 29, 2016, 5:36 p.m. UTC

1 41488U 98067JJ  16150.25253084  .00021500  00000-0  31181-3 0  9992
2 41488  51.6426 152.4120 0001415 345.8766 109.4837 15.55777226  1668

Satellite is not in orbit.